[keps] orb10087.2l.amsat
Ray Hoad
ray.hoad at mypbmail.com
Sat Mar 27 22:18:16 PDT 2010
SB KEPS @ AMSAT $ORB10087.N
2Line Orbital Elements 10087.AMSAT
HR AMSAT ORBITAL ELEMENTS FOR AMATEUR SATELLITES IN NASA FORMAT
FROM WA5QGD FORT WORTH,TX March 28, 2010
Send Subscribe/unsubscribe to KEPS at http://www.amsat.org/mailman/listinfo/keps
BID: ORB10087.N
DECODE 2-LINE ELSETS WITH THE FOLLOWING KEY:
1 AAAAAU 00 0 0 BBBBB.BBBBBBBB .CCCCCCCC 00000-0 00000-0 0 DDDZ
2 AAAAA EEE.EEEE FFF.FFFF GGGGGGG HHH.HHHH III.IIII JJ.JJJJJJJJKKKKKZ
KEY: A-CATALOGNUM B-EPOCHTIME C-DECAY D-ELSETNUM E-INCLINATION F-RAAN
G-ECCENTRICITY H-ARGPERIGEE I-MNANOM J-MNMOTION K-ORBITNUM Z-CHECKSUM
TO ALL RADIO AMATEURS BT
AO-07
1 07530U 74089B 10086.08205895 -.00000027 00000-0 10000-3 0 7368
2 07530 101.4066 105.1226 0012115 074.5547 285.6861 12.53577990618160
FO-29
1 24278U 96046B 10086.16531306 -.00000005 00000-0 32175-4 0 2720
2 24278 098.5196 286.6158 0350829 336.7915 021.7708 13.52948611672011
SO-33
1 25509U 98061B 10084.80483422 .00000161 00000-0 18128-4 0 6774
2 25509 031.4331 260.0420 0354686 280.7454 075.3507 14.28297181596127
RS-22
1 27939U 03042A 10086.48476258 .00000111 00000-0 30286-4 0 423
2 27939 097.9052 315.3843 0012930 321.9099 038.1165 14.63396299347009
VO-52
1 28650U 05017B 10085.81453043 .00000195 00000-0 31094-4 0 4649
2 28650 097.7016 142.4277 0026976 183.3878 176.7114 14.81707840264490
SO-67
1 35870U 09049F 10086.77127731 .00000893 00000-0 41570-4 0 5756
2 35870 097.3408 137.9494 0008803 352.6696 144.1440 15.22416570 29078
HO-68
1 36122U 09072B 10086.15936550 -.00000045 00000-0 00000 0 0 1666
2 36122 100.4779 147.3922 0007314 160.6807 199.4575 13.16280109 13426
UO-11
1 14781U 84021B 10086.20476832 .00000096 00000-0 19933-4 0 2068
2 14781 098.0652 137.6596 0009614 137.8300 222.3615 14.79782209399687
AO-16
1 20439U 90005D 10086.08053775 .00000043 00000-0 31628-4 0 8554
2 20439 098.3227 047.2563 0011810 053.5090 306.7188 14.31853810 53635
LO-19
1 20442U 90005G 10086.51069269 .00000016 00000-0 21384-4 0 7660
2 20442 098.2838 053.8031 0012593 048.1832 312.0418 14.32086168 53868
AO-27
1 22825U 93061C 10086.59782611 .00000003 00000-0 17875-4 0 4891
2 22825 098.4780 036.6910 0009105 145.0883 215.0890 14.29290996860398
IO-26
1 22826U 93061D 10086.67786137 .00000044 00000-0 33702-4 0 2269
2 22826 098.4714 037.4019 0009443 139.6180 220.5706 14.29546199860519
GO-32
1 25397U 98043D 10086.19500740 .00000100 00000-0 62333-4 0 1456
2 25397 098.3164 098.1565 0002124 123.6180 236.5199 14.23174587608385
NO-44
1 26931U 01043C 10086.48993361 .00000212 00000-0 11481-3 0 4197
2 26931 067.0515 054.4594 0006341 264.0045 096.0341 14.29589444443074
SO-50
1 27607U 02058C 10086.66047934 .00000066 00000-0 32177-4 0 1359
2 27607 064.5568 244.1392 0036185 115.4413 245.0412 14.71516258390386
CO-55
1 27844U 03031E 10086.04726911 .00000075 00000-0 54914-4 0 8108
2 27844 098.7124 096.1968 0010822 050.0181 310.1940 14.20693716349424
CO-57
1 27848U 03031J 10085.99446489 .00000057 00000-0 46876-4 0 7617
2 27848 098.7167 095.2267 0010743 054.8414 305.3790 14.20488036349370
AO-51
1 28375U 04025K 10085.98679074 .00000043 00000-0 25785-4 0 6366
2 28375 098.0595 084.1761 0084670 347.4952 012.4138 14.40675736301678
GENESAT1
1 29655U 06058C 10086.53918609 .00066641 00000-0 36311-3 0 9903
2 29655 040.0189 196.0860 0005258 081.9611 278.1924 15.78904842187026
CP3
1 31129U 07012N 10086.08764069 .00000174 00000-0 50320-4 0 5386
2 31129 097.9476 130.0168 0103788 128.2709 232.7964 14.52228511155943
CO-65
1 32785U 08021C 10086.11098096 .00000221 00000-0 34783-4 0 6389
2 32785 097.9034 152.1441 0014885 187.3103 172.7885 14.81611874103335
KKS-1
1 33493U 09002B 10086.77160792 .00000684 00000-0 95273-4 0 3326
2 33493 098.0746 205.6193 0020952 047.4427 312.8558 14.80912108 63432
SOHLA-1
1 33496U 09002E 10086.79130035 -.00000037 00000-0 20688-5 0 619
2 33496 098.0493 196.9572 0007708 102.0227 258.1843 14.69479049 62928
NOAA-10
1 16969U 86073A 10086.21017056 -.00000063 00000-0 -76838-5 0 58
2 16969 098.6659 115.9191 0013293 091.4799 268.7904 14.27410179223885
NOAA-11
1 19531U 88089A 10086.28191507 .00000083 00000-0 65407-4 0 213
2 19531 098.7670 176.7018 0012143 024.8378 335.3348 14.14919507109551
NOAA-12
1 21263U 91032A 10086.37613941 .00000048 00000-0 39136-4 0 5060
2 21263 098.7693 099.5361 0013165 047.3595 312.8693 14.25623993980744
MET-3/5
1 21655U 91056A 10086.51365888 .00000051 00000-0 10000-3 0 7717
2 21655 082.5611 006.3373 0012995 188.0428 172.0533 13.17022379894921
MET-2/21
1 22782U 93055A 10086.14322783 -.00000048 00000-0 -56751-4 0 7314
2 22782 082.5486 317.5440 0020816 273.6185 086.2599 13.83642781836738
OKEAN-4
1 23317U 94066A 10086.73693024 .00000475 00000-0 55594-4 0 1899
2 23317 082.5373 069.8778 0023026 146.1512 214.1185 14.82787565834385
NOAA-14
1 23455U 94089A 10086.40090424 -.00000012 00000-0 17013-4 0 9986
2 23455 098.8802 167.7038 0010205 105.7383 254.4918 14.13781660785946
NOAA-15
1 25338U 98030A 10086.20253120 .00000226 00000-0 11559-3 0 3180
2 25338 098.6142 074.6204 0009964 318.1730 041.8690 14.24815063617070
RESURS
1 25394U 98043A 10086.14944615 -.00000009 00000-0 13819-4 0 4638
2 25394 098.3118 108.6744 0002388 093.8279 266.3173 14.24196058608679
FENGYUN1
1 25730U 99025A 10085.88582015 .00000628 00000-0 39189-3 0 49
2 25730 098.7813 052.9959 0024023 137.3477 222.9604 14.08200365560103
OKEAN-0
1 25860U 99039A 10085.98489308 .00000115 00000-0 24954-4 0 9494
2 25860 097.8244 061.5150 0001372 051.2812 308.8520 14.73625266574797
NOAA-16
1 26536U 00055A 10086.20208715 -.00000204 00000-0 -85254-4 0 7941
2 26536 099.1759 101.7237 0010162 203.2681 156.8026 14.12550300490256
NOAA-17
1 27453U 02032A 10086.35739221 -.00000054 00000-0 -52996-5 0 7990
2 27453 098.4407 140.0610 0012079 021.3832 338.7837 14.24142135403053
NOAA-18
1 28654U 05018A 10086.34754046 .00000033 00000-0 42856-4 0 2849
2 28654 098.9417 032.8767 0013521 285.5289 074.4400 14.11339271249892
NOAA-19
1 33591U 09005A 10086.38870943 .00000369 00000-0 22920-3 0 4836
2 33591 098.7813 030.2758 0014437 157.7287 202.4503 14.11039025 58375
HUBBLE
1 20580U 90037B 10085.13072512 .00000591 00000-0 32446-4 0 5409
2 20580 028.4693 062.0538 0003273 041.8770 318.2061 15.00930404892269
ISS
1 25544U 98067A 10087.00051365 .00023257 00000-0 16399-3 0 8568
2 25544 051.6441 287.3974 0006569 114.6728 048.8749 15.73940784650681
CO-58
1 28895U 05043F 10086.14541900 .00000175 00000-0 45967-4 0 5458
2 28895 098.0263 333.2893 0017867 179.1293 180.9928 14.59864978235013
FALCON
1 30776U 07006E 10086.60945769 .00001064 00000-0 79392-4 0 7945
2 30776 035.4329 179.5309 0001095 263.4416 096.6176 15.03550732167770
MAST
1 31126U 07012K 10084.79233653 .00000041 00000-0 19463-4 0 8276
2 31126 097.9492 131.0793 0095548 124.9066 236.1129 14.53566380155947
CAPE1
1 31130U 07012P 10086.07224037 .00000331 00000-0 86467-4 0 8472
2 31130 097.9482 129.8673 0103353 128.2885 232.7661 14.52152026155741
COMPASS
1 32787U 08021E 10086.19409217 .00000216 00000-0 34086-4 0 6290
2 32787 097.9006 152.0535 0015602 188.4603 171.6383 14.81801199103358
AAUSAT2
1 32788U 08021F 10086.40751482 .00000640 00000-0 87287-4 0 6246
2 32788 097.9051 152.3767 0015613 186.8912 173.2268 14.81940691103391
DO-64
1 32789U 08021G 10086.08555229 .00001082 00000-0 14271-3 0 6391
2 32789 097.9080 152.4419 0015629 187.7096 172.3900 14.82034654103341
CO-66
1 32791U 08021J 10085.93426777 .00000089 00000-0 18011-4 0 6205
2 32791 097.9025 151.8205 0015492 187.9017 172.1961 14.81598515103279
RS-30
1 32953U 08025A 10086.91541677 .00000010 00000-0 00000 0 0 5583
2 32953 082.4966 080.2156 0017432 281.8331 078.0795 12.43004496 83644
TACSAT-3
1 35001U 09028A 10086.15385823 .00006867 00000-0 16750-3 0 2473
2 35001 040.4582 346.5899 0020290 110.8621 249.4369 15.40898743 47973
PHARMSAT
1 35002U 09028B 10085.87840848 .00006038 00000-0 14481-3 0 2340
2 35002 040.4716 346.5609 0023319 113.5682 246.7582 15.41495138 47940
HAWKSAT1
1 35003U 09028C 10086.12618429 .00012103 00000-0 26428-3 0 2498
2 35003 040.4648 341.9752 0021549 126.7583 233.5214 15.43707243 48023
CP6
1 35004U 09028D 10086.80668224 .00014479 00000-0 30952-3 0 2420
2 35004 040.4634 337.4568 0020410 132.7397 227.5153 15.44248288 48126
AEROCUB3
1 35005U 09028E 10086.08240581 .00030629 00000-0 60789-3 0 2586
2 35005 040.4768 341.9772 0017676 130.7388 229.4966 15.46144193 48013
DRAGNSAT
1 35690U 09038B 10076.22711312 .05715194 12509-4 31481-3 0 3162
2 35690 051.6170 315.4586 0004999 310.9891 057.3269 16.42150010 36561
POLLUX
1 35693U 09038E 10085.91699132 .01498737 12093-4 35950-3 0 3515
2 35693 051.6247 266.2346 0007410 311.5608 051.0772 16.28668914 38057
CASTOR
1 35694U 09038F 10086.90666055 .00054193 12253-4 17657-3 0 2451
2 35694 051.6370 271.7158 0003790 232.9034 127.1627 15.91173805 38078
METEOR-M
1 35865U 09049A 10086.15126556 .00000176 00000-0 10000-3 0 1591
2 35865 098.7684 140.5016 0001647 234.8739 125.2228 14.21829257 27060
RS-38
1 35869U 09049E 10086.13146561 .00000176 00000-0 10000-3 0 1625
2 35869 098.7670 140.5077 0003742 239.4830 120.5940 14.21977911 27067
/EX
More information about the Keps
mailing list